Tracking 19903 objects as of 16-Oct-2019
HD Live streaming from Space Station
objects crossing your sky now

TITAN 3D DEB

Track TITAN 3D DEB now!
10-day predictions


NORAD ID: 6824
Int'l Code: 1972-079E
Perigee: 1,440.9 km
Apogee: 1,449.4 km
Inclination: 95.5 °
Period: 114.6 minutes
Semi major axis: 7816 km
RCS: 0.0728 m2 (small)
Launch date: October 10, 1972
Source: United States (US)
Launch site: AIR FORCE WESTERN TEST RANGE (AFWTR)

Note: This is SATELLITE DEBRIS
aabbcc
Your satellite tracking list
Your tracking list is empty




NASA's NSSDC Master Catalog

Two Line Element Set (TLE):
1  6824U 72079E   19287.03660723  .00000006  00000-0  10927-3 0  9997
2  6824  95.5046 116.0781 0005489 259.4501 224.6909 12.56359774155245
Source of the keplerian elements: AFSPC